Tracking 29892 objects as of 21-Nov-2024
HD Live streaming from Space Station
objects crossing your sky now

SL-14 R/B

Track SL-14 R/B now!
10-day predictions


NORAD ID: 22652
Int'l Code: 1993-030G
Perigee: 1,410.6 km
Apogee: 1,423.3 km
Inclination: 82.6 °
Period: 114.0 minutes
Semi major axis: 7787 km
RCS: 0.9779 m2 (medium)
Launch date: May 11, 1993
Source: Commonwealth of Independent States (former USSR) (CIS)
Launch site: PLESETSK MISSILE AND SPACE COMPLEX (PKMTR)

Note: This is a ROCKET BODY
Your satellite tracking list
Your tracking list is empty




NASA's NSSDC Master Catalog

Two Line Element Set (TLE):
1 22652U 93030G   24325.50007784  .00000021  00000-0  56545-4 0  9991
2 22652  82.5862 330.3983 0008165 153.2557   1.4032 12.63182009453607
Source of the keplerian elements: AFSPC